Theta_e
287 286 287 287 286 285 286 286 286 286 286 285 284 284 284 283 281 281 281 281 280 279 279 279 279 279 279 277 277 277 277 277
287 287 287 286 285 285 285 285 284 285 284 283 283 283 283 282 281 280 280 280 280 279 279 278 278 278 277 277 277 277 276 276
287 286 286 285 285 284 285 285 285 284 283 282 282 282 281 281 280 280 280 280 279 279 278 278 277 277 277 276 276 276 276 276
286 285 285 285 285 284 284 284 283 283 282 281 281 280 280 280 280 279 279 278 278 278 277 277 277 277 276 277 276 276 276 276
287 286 286 286 285 284 284 284 283 282 282 281 280 280 280 280 280 279 279 278 277 277 277 277 276 276 276 276 276 276 276 277
288 287 286 285 285 284 284 284 283 282 281 281 280 280 280 280 279 279 279 277 277 276 276 276 276 276 275 276 276 276 275 276
290 288 286 285 285 285 284 284 283 282 281 280 280 280 280 280 280 279 278 277 276 275 275 274 276 280 281 277 276 276 276 275
290 289 288 286 286 285 285 284 282 281 280 280 280 280 280 280 279 278 277 276 275 274 274 274 274 281 281 281 276 276 275 275
291 290 288 288 287 287 285 283 282 281 281 280 281 280 279 279 277 276 275 275 274 274 274 274 274 280 282 281 276 275 274 274
293 291 289 287 286 285 283 283 282 281 281 281 281 280 278 277 276 275 275 273 273 273 272 272 272 280 281 280 274 274 273 274
290 289 290 288 286 284 283 282 282 282 282 281 280 279 278 278 275 272 273 275 274 274 272 271 270 278 280 279 274 267 272 272
289 290 289 286 285 284 282 282 283 281 279 278 279 278 278 276 273 271 273 272 270 271 270 270 270 270 279 280 275 272 269 270
285 284 284 284 286 283 282 282 278 278 277 277 276 277 275 274 270 270 271 271 269 268 267 269 270 272 276 278 279 278 269 269
283 281 280 280 283 282 281 277 276 276 275 274 272 273 273 273 270 270 270 271 270 269 269 267 269 269 276 277 278 279 276 274
279 278 278 276 277 275 276 275 274 273 271 269 271 268 267 271 271 271 269 269 268 267 268 265 267 268 269 270 271 276 276 276
278 277 276 274 273 271 274 274 273 270 270 269 269 270 268 268 268 269 266 270 266 267 265 263 265 268 271 270 266 265 269 269
273 274 272 271 270 269 272 273 272 270 269 269 269 267 267 266 264 275 274 276 277 276 269 264 272 275 276 277 278 278 277 272
273 272 272 271 270 265 268 271 270 270 268 268 268 267 266 264 265 264 267 277 278 278 278 278 276 277 277 278 279 279 279 275
271 269 270 268 264 263 263 266 265 265 268 267 267 266 264 264 263 262 262 262 263 270 273 274 275 275 276 276 276 272 271 264
267 265 265 263 259 259 261 265 263 264 263 263 262 261 262 262 262 261 261 261 262 264 267 267 269 271 271 272 264 260 262 259
Wind_Speed
13 12 11 11 10 9 10 12 11 11 10 10 10 10 10 10 10 9 7 7 7 7 7 7 7 6 6 5 4 5 2 2
12 12 12 11 10 11 11 11 10 10 8 10 9 10 9 9 9 9 7 8 7 7 7 7 7 6 6 6 5 5 4 3
12 13 13 13 12 13 12 12 11 10 9 9 9 9 10 9 9 8 9 7 7 7 7 7 6 6 6 6 5 5 4 3
13 15 14 14 14 13 13 13 11 10 11 9 10 10 10 10 9 8 8 7 7 7 7 7 7 7 6 6 5 4 4 3
13 16 15 15 15 13 13 13 12 11 11 11 11 11 10 9 9 9 8 8 7 7 7 7 7 6 6 6 5 4 4 4
18 17 16 15 14 14 14 14 13 13 12 12 9 9 9 9 9 8 9 7 7 7 6 6 6 5 6 6 6 5 4 4
17 16 17 17 17 16 15 15 14 13 12 10 10 10 10 10 10 9 8 8 7 7 7 7 5 12 13 8 5 4 4 5
21 19 17 18 17 17 16 13 14 12 10 11 11 11 10 10 10 10 10 7 8 7 7 7 6 14 14 13 4 4 5 4
15 15 14 13 14 12 12 14 13 12 12 11 12 11 10 11 11 8 7 10 8 8 7 6 7 14 15 14 5 4 5 5
16 16 13 15 15 14 14 14 13 13 13 13 12 12 12 12 11 8 8 6 7 5 7 8 6 15 15 12 5 6 6 6
10 9 13 12 14 15 14 13 15 13 14 12 12 12 13 12 11 5 5 9 6 7 7 7 6 15 15 12 4 4 5 6
11 12 11 11 13 13 13 15 12 9 8 9 10 12 11 9 6 6 7 5 6 7 5 7 7 8 17 16 5 6 5 6
10 9 8 10 12 11 12 8 8 9 9 9 8 8 7 10 5 6 7 8 6 6 4 4 5 11 15 17 19 14 7 6
11 10 6 6 9 11 7 8 8 8 8 7 6 6 7 9 7 5 6 7 7 6 6 4 4 5 17 19 20 20 12 6
9 8 7 5 4 4 7 7 8 8 6 5 6 5 4 4 5 6 6 6 4 5 6 4 4 6 5 6 7 13 12 13
8 6 6 5 4 3 6 8 7 5 5 5 4 6 5 3 5 5 2 6 5 6 4 5 5 6 11 9 4 4 8 7
3 5 3 4 4 3 5 7 7 6 5 5 5 4 4 4 1 9 9 13 13 12 8 3 10 9 12 15 17 19 21 8
4 6 6 6 6 1 4 6 7 6 5 4 4 5 5 3 4 4 4 11 11 11 11 13 11 14 16 17 18 20 18 10
5 5 5 6 5 4 2 4 4 4 6 5 4 4 4 4 4 3 3 2 1 5 3 6 9 11 14 16 16 8 7 2
7 6 6 6 3 4 2 5 5 4 3 4 4 3 4 4 4 4 4 3 2 1 3 5 10 12 13 15 4 3 6 3
Wind_Direction
170 167 172 175 169 161 163 162 158 150 153 155 150 144 141 140 143 146 135 132 138 134 126 122 119 123 121 111 112 111 112 109
174 170 170 171 170 168 165 157 155 154 150 148 148 144 141 141 147 148 141 146 146 145 135 131 131 133 128 125 132 125 129 126
170 168 173 177 174 174 168 163 165 158 151 151 147 146 146 153 154 149 149 148 153 147 140 142 145 145 141 139 145 147 154 165
167 176 182 183 181 177 173 169 163 158 156 155 157 155 159 158 156 153 150 153 152 149 153 155 154 147 139 154 161 176 189 191
182 188 186 184 181 177 177 171 166 163 164 167 169 166 165 161 160 159 156 156 163 166 158 159 161 148 159 170 182 198 207 220
191 189 185 182 179 178 180 176 169 169 173 177 167 162 158 164 163 158 159 166 165 157 164 166 161 167 176 185 193 204 229 246
193 188 187 184 186 180 181 180 171 176 178 166 167 169 173 168 167 163 167 167 165 174 175 176 179 193 195 186 194 203 224 242
192 187 185 189 182 185 181 168 172 172 166 172 173 180 178 168 168 173 177 166 177 180 184 190 194 204 207 209 191 205 223 239
180 183 180 176 177 169 165 173 170 174 175 174 179 181 166 171 181 169 168 181 183 194 194 189 208 213 216 217 191 211 226 235
176 169 156 165 170 162 166 172 173 182 182 183 179 173 172 184 182 179 172 178 194 185 188 199 207 215 219 218 174 212 233 238
151 149 154 165 157 161 170 166 186 183 187 178 176 176 183 185 182 168 176 198 191 203 199 199 202 219 222 223 174 204 234 240
139 160 154 145 151 169 159 186 185 171 156 165 174 179 183 176 165 162 180 164 192 204 192 200 189 216 227 229 198 219 225 229
124 130 140 145 151 153 180 167 142 150 162 171 173 176 168 173 166 168 171 191 199 200 215 212 192 204 231 234 237 231 212 220
136 128 120 134 150 163 175 143 145 152 170 174 159 168 164 169 173 164 176 195 206 208 224 213 195 210 234 234 243 244 244 217
119 131 148 156 144 98 139 143 148 161 164 151 161 149 140 140 160 173 183 194 191 201 224 201 201 219 222 234 247 251 247 255
138 146 163 150 139 141 147 144 150 131 137 146 148 167 161 171 172 184 200 189 187 212 193 190 228 224 220 219 221 231 244 249
115 116 132 121 130 152 146 145 140 146 162 170 164 159 156 155 119 224 214 218 225 225 202 225 238 246 244 248 250 242 234 235
155 128 145 138 124 117 155 150 157 159 156 153 155 163 161 157 174 198 271 231 222 233 248 235 227 244 253 256 261 266 268 260
99 81 99 97 80 360 74 115 131 144 153 160 161 157 151 159 166 152 157 157 305 358 340 325 309 300 293 291 293 290 286 293
85 79 91 97 45 347 67 115 120 118 120 117 110 110 123 123 119 121 129 151 166 355 329 340 312 307 305 309 358 342 315 309